Weather History for Perry, IA

Change the Weather History Date:

Sunday, April 20, 2014

  Actual Average Record
Temperature  
Mean Temperature 70 °F -  
Max Temperature 84 °F 63 °F 86 °F (1987)
Min Temperature 55 °F 42 °F 24 °F (1956)
Cooling Degree Days 4    
Growing Degree Days 20 (Base 50)    
Moisture  
Dew Point 46 °F    
Average Humidity 43    
Maximum Humidity 67    
Minimum Humidity 24    
Precipitation  
Precipitation 0.00 in - - ()
Sea Level Pressure  
Sea Level Pressure 29.99 in    
Wind  
Wind Speed 12 mph (SSW)    
Max Wind Speed 22 mph    
Max Gust Speed 28 mph    
Visibility 10 miles    
Events      
Averages and records for this station are not official NWS values.
T = Trace of Precipitation, MM = Missing Value Source: NWS Daily Summary

Daily Weather History Graph

Daily Weather History Graph

Search for Another Location

Airport:

Trip Planner

Search our weather history database for the weather conditions in past years. The results will help you decide how hot, cold, wet, or windy it might be!

Date:

Astronomy

Apr. 20, 2014 Rise Set
Actual Time 6:28 AM CDT 8:03 PM CDT
Civil Twilight 5:59 AM CDT 8:32 PM CDT
Nautical Twilight 5:23 AM CDT 9:08 PM CDT
Astronomical Twilight 4:46 AM CDT 9:45 PM CDT
Moon 12:45 AM CDT (4/20) 10:48 AM CDT (4/20)
Length of Visible Light 14h 33m
Length of Day
13h 34m
Waning Gibbous, 68% of the Moon is Illuminated
Apr 20
Waning Gibbous
Apr 22
Last Quarter
Apr 29
New
May 6
First Quarter
May 14
Full

Hourly Weather History & Observations

Time (CDT) Temp. Dew Point Humidity Pressure Visibility Wind Dir Wind Speed Gust Speed Precip Events Conditions
12:15 AM 64.8 °F 42.1 °F 44% 30.05 in 10.0 mi South 12.7 mph - N/A   Overcast
12:35 AM 64.4 °F 42.4 °F 45% 30.04 in 10.0 mi South 11.5 mph - N/A   Overcast
12:55 AM 63.7 °F 42.8 °F 47% 30.04 in 10.0 mi South 10.4 mph - N/A   Overcast
1:15 AM 63.1 °F 42.8 °F 47% 30.04 in 10.0 mi South 11.5 mph - N/A   Overcast
1:35 AM 63.0 °F 42.8 °F 48% 30.04 in 10.0 mi South 11.5 mph - N/A   Overcast
1:55 AM 63.5 °F 42.8 °F 47% 30.04 in 10.0 mi South 11.5 mph - N/A   Overcast
2:15 AM 63.3 °F 42.8 °F 47% 30.04 in 10.0 mi South 11.5 mph - N/A   Overcast
2:35 AM 63.3 °F 42.8 °F 47% 30.04 in 10.0 mi South 10.4 mph - N/A   Overcast
2:55 AM 63.5 °F 43.2 °F 47% 30.04 in 10.0 mi South 9.2 mph - N/A   Overcast
3:15 AM 63.1 °F 43.0 °F 48% 30.04 in 10.0 mi South 10.4 mph - N/A   Overcast
3:35 AM 63.1 °F 43.0 °F 48% 30.03 in 10.0 mi South 9.2 mph - N/A   Overcast
3:55 AM 62.4 °F 44.1 °F 51% 30.03 in 10.0 mi South 10.4 mph - N/A   Overcast
4:15 AM 63.0 °F 43.0 °F 48% 30.03 in 10.0 mi South 11.5 mph - N/A   Overcast
4:35 AM 62.6 °F 42.8 °F 48% 30.03 in 10.0 mi South 10.4 mph - N/A   Overcast
4:55 AM 62.1 °F 42.8 °F 49% 30.03 in 10.0 mi South 8.1 mph - N/A   Overcast
5:15 AM 62.1 °F 42.8 °F 49% 30.02 in 10.0 mi South 8.1 mph - N/A   Mostly Cloudy
5:35 AM 60.8 °F 42.8 °F 52% 30.02 in 10.0 mi South 6.9 mph - N/A   Mostly Cloudy
5:55 AM 57.7 °F 42.8 °F 57% 30.02 in 10.0 mi SSE 8.1 mph - N/A   Mostly Cloudy
6:15 AM 57.6 °F 43.0 °F 58% 30.01 in 10.0 mi SSE 9.2 mph - N/A   Scattered Clouds
6:35 AM 55.6 °F 43.0 °F 63% 30.01 in 10.0 mi South 9.2 mph - N/A   Clear
6:55 AM 57.2 °F 43.2 °F 59% 30.01 in 10.0 mi SSE 8.1 mph - N/A   Scattered Clouds
7:15 AM 58.1 °F 43.5 °F 58% 30.02 in 10.0 mi SSE 8.1 mph - N/A   Overcast
7:35 AM 59.4 °F 43.7 °F 56% 30.03 in 10.0 mi South 8.1 mph - N/A   Overcast
7:55 AM 60.1 °F 43.9 °F 55% 30.03 in 10.0 mi SSE 8.1 mph - N/A   Mostly Cloudy
8:15 AM 61.7 °F 44.2 °F 53% 30.03 in 10.0 mi South 9.2 mph - N/A   Scattered Clouds
8:35 AM 63.1 °F 44.8 °F 51% 30.03 in 10.0 mi South 9.2 mph - N/A   Clear
8:55 AM 66.2 °F 44.8 °F 46% 30.03 in 10.0 mi South 11.5 mph - N/A   Clear
9:15 AM 68.5 °F 45.0 °F 43% 30.03 in 10.0 mi SSW 13.8 mph - N/A   Clear
9:35 AM 69.8 °F 45.3 °F 41% 30.03 in 10.0 mi SSW 16.1 mph 19.6 mph N/A   Clear
9:55 AM 70.3 °F 45.5 °F 41% 30.03 in 10.0 mi SW 16.1 mph - N/A   Clear
10:15 AM 72.1 °F 45.5 °F 38% 30.02 in 10.0 mi SW 13.8 mph 18.4 mph N/A   Clear
10:35 AM 72.7 °F 45.9 °F 38% 30.01 in 10.0 mi SSW 12.7 mph 19.6 mph N/A   Clear
10:55 AM 74.5 °F 45.7 °F 36% 30.02 in 10.0 mi SSW 12.7 mph 18.4 mph N/A   Clear
11:15 AM 74.3 °F 45.7 °F 36% 30.02 in 10.0 mi SSW 13.8 mph 18.4 mph N/A   Clear
11:35 AM 75.7 °F 45.9 °F 35% 30.02 in 10.0 mi SW 12.7 mph - N/A   Clear
11:55 AM 76.8 °F 46.2 °F 34% 30.01 in 10.0 mi SW 13.8 mph - N/A   Scattered Clouds
12:15 PM 77.7 °F 45.7 °F 32% 30.01 in 10.0 mi SW 13.8 mph - N/A   Clear
12:35 PM 78.1 °F 45.9 °F 32% 30.00 in 10.0 mi SSW 12.7 mph 18.4 mph N/A   Clear
12:55 PM 78.4 °F 45.9 °F 32% 30.00 in 10.0 mi SW 12.7 mph 19.6 mph N/A   Clear
1:15 PM 79.7 °F 45.5 °F 30% 29.98 in 10.0 mi SSW 17.3 mph 21.9 mph N/A   Clear
1:35 PM 81.1 °F 45.7 °F 29% 29.97 in 10.0 mi SSW 17.3 mph 21.9 mph N/A   Clear
1:55 PM 80.8 °F 45.1 °F 28% 29.98 in 10.0 mi SW 17.3 mph 21.9 mph N/A   Scattered Clouds
2:15 PM 81.0 °F 44.8 °F 28% 29.97 in 10.0 mi SSW 18.4 mph 23.0 mph N/A   Scattered Clouds
2:35 PM 81.0 °F 44.2 °F 27% 29.97 in 10.0 mi SW 17.3 mph 21.9 mph N/A   Clear
2:55 PM 81.7 °F 45.0 °F 27% 29.96 in 10.0 mi SSW 15.0 mph 24.2 mph N/A   Clear
3:15 PM 84.2 °F 44.6 °F 25% 29.95 in 10.0 mi SSW 17.3 mph 27.6 mph N/A   Clear
3:35 PM 84.6 °F 44.6 °F 25% 29.94 in 10.0 mi SSW 18.4 mph 24.2 mph N/A   Clear
3:55 PM 84.6 °F 44.2 °F 24% 29.93 in 10.0 mi SSW 21.9 mph 25.3 mph N/A   Clear
4:15 PM 82.9 °F 44.8 °F 26% 29.93 in 10.0 mi SW 16.1 mph 24.2 mph N/A   Clear
4:35 PM 83.8 °F 44.1 °F 25% 29.92 in 10.0 mi SSW 15.0 mph 25.3 mph N/A   Clear
4:55 PM 84.6 °F 44.4 °F 24% 29.92 in 10.0 mi SSW 19.6 mph 25.3 mph N/A   Scattered Clouds
5:15 PM 83.8 °F 43.9 °F 25% 29.91 in 10.0 mi SSW 15.0 mph 20.7 mph N/A   Scattered Clouds
5:35 PM 83.7 °F 44.6 °F 25% 29.91 in 10.0 mi SSW 18.4 mph 24.2 mph N/A   Scattered Clouds
5:55 PM 83.5 °F 45.0 °F 26% 29.90 in 10.0 mi SSW 19.6 mph - N/A   Scattered Clouds
6:15 PM 82.0 °F 45.5 °F 28% 29.91 in 10.0 mi SSW 19.6 mph 25.3 mph N/A   Clear
6:35 PM 80.1 °F 47.1 °F 31% 29.90 in 10.0 mi South 20.7 mph 25.3 mph N/A   Clear
6:55 PM 78.8 °F 47.7 °F 33% 29.90 in 10.0 mi South 21.9 mph 26.5 mph N/A   Clear
7:15 PM 77.9 °F 48.2 °F 35% 29.90 in 10.0 mi South 16.1 mph 23.0 mph N/A   Clear
7:35 PM 76.8 °F 48.6 °F 37% 29.90 in 10.0 mi South 13.8 mph - N/A   Clear
7:55 PM 75.2 °F 48.7 °F 39% 29.90 in 10.0 mi South 12.7 mph - N/A   Clear
8:15 PM 74.5 °F 48.2 °F 39% 29.90 in 10.0 mi South 16.1 mph - N/A   Scattered Clouds
8:35 PM 73.4 °F 48.7 °F 42% 29.92 in 10.0 mi SSW 17.3 mph - N/A   Mostly Cloudy
8:55 PM 71.6 °F 50.5 °F 47% 29.93 in 10.0 mi SW 18.4 mph 21.9 mph N/A   Mostly Cloudy
9:15 PM 70.0 °F 50.9 °F 51% 29.94 in 10.0 mi WSW 19.6 mph 24.2 mph N/A   Scattered Clouds
9:35 PM 68.2 °F 51.1 °F 54% 29.95 in 10.0 mi WSW 16.1 mph - N/A   Clear
9:55 PM 66.7 °F 51.8 °F 59% 29.96 in 10.0 mi WSW 10.4 mph - N/A   Clear
10:15 PM 66.2 °F 52.0 °F 60% 29.96 in 10.0 mi WSW 11.5 mph - N/A   Clear
10:35 PM 65.3 °F 52.3 °F 63% 29.96 in 10.0 mi SW 8.1 mph - N/A   Clear
10:55 PM 64.9 °F 52.7 °F 64% 29.96 in 10.0 mi SW 10.4 mph - N/A   Clear
11:15 PM 64.2 °F 52.7 °F 66% 29.96 in 10.0 mi SW 9.2 mph - N/A   Clear
11:35 PM 63.5 °F 52.3 °F 67% 29.96 in 10.0 mi SW 9.2 mph - N/A   Scattered Clouds
11:55 PM 63.9 °F 52.3 °F 66% 29.96 in 10.0 mi SW 8.1 mph - N/A   Mostly Cloudy